This is the latest recevied weather packets stored in our database for station/object KO4ZGL-13. If no packets are shown the sender has not sent any weather packets the latest 10 day(s).
| Time | Temp. | Humidity | Pressure | Rain* | Wind** | Luminosity | Snow |
|---|---|---|---|---|---|---|---|
| 1777984340 | 13.89° C | 98% | 1018.6 hPa | 0 mm | - | 41 W/m² | - |
| 1777984037 | 13.89° C | 98% | 1018.6 hPa | 0 mm | - | 69 W/m² | - |
| 1777983734 | 12.78° C | 98% | 1018.5 hPa | 0 mm | - | 79 W/m² | - |
| 1777983431 | 12.22° C | 98% | 1018.6 hPa | 0 mm | - | 41 W/m² | - |
| 1777983127 | 11.67° C | 98% | 1018.9 hPa | 0 mm | - | 39 W/m² | - |
| 1777982824 | 11.67° C | 98% | 1018.5 hPa | 0 mm | - | 34 W/m² | - |
| 1777982520 | 11.11° C | 98% | 1018.8 hPa | 0 mm | - | 32 W/m² | - |
| 1777982213 | 11.11° C | 98% | 1018.5 hPa | 0 mm | - | 32 W/m² | - |
| 1777981911 | 11.67° C | 98% | 1018.4 hPa | 0 mm | - | 29 W/m² | - |
| 1777981608 | 11.67° C | 98% | 1018.4 hPa | 0 mm | - | 29 W/m² | - |
| 1777981304 | 11.67° C | 98% | 1018.4 hPa | 0 mm | - | 32 W/m² | - |
| 1777981001 | 10.56° C | 98% | 1018.4 hPa | 0 mm | - | 31 W/m² | - |
| 1777980697 | 10° C | 98% | 1018.4 hPa | 0 mm | - | 27 W/m² | - |
| 1777980393 | 10° C | 98% | 1018.2 hPa | 0 mm | - | 24 W/m² | - |
| 1777980092 | 10° C | 98% | 1018.3 hPa | 0 mm | - | 22 W/m² | - |
| 1777979786 | 10° C | 98% | 1018.2 hPa | 0 mm | - | 20 W/m² | - |
| 1777979482 | 10° C | 98% | 1018 hPa | 0 mm | - | 18 W/m² | - |
| 1777979178 | 10° C | 98% | 1018.2 hPa | 0 mm | - | 16 W/m² | - |
| 1777978875 | 10° C | 98% | 1017.9 hPa | 0 mm | - | 13 W/m² | - |
| 1777978572 | 9.44° C | 98% | 1017.9 hPa | 0 mm | - | 11 W/m² | - |
| 1777978268 | 9.44° C | 98% | 1017.9 hPa | 0 mm | - | 7 W/m² | - |
| 1777977965 | 9.44° C | 98% | 1018 hPa | 0 mm | - | 6 W/m² | - |
| 1777977663 | 10° C | 98% | 1017.7 hPa | 0 mm | - | 3 W/m² | - |
| 1777977359 | 10° C | 98% | 1017.8 hPa | 0 mm | - | 2 W/m² | - |
| 1777977056 | 9.44° C | 98% | 1017.6 hPa | 0 mm | - | 0 W/m² | - |
* Rain latest hour (hover to see other rain measurements)
** Current wind speed in m/s (hover to see current wind gust speed)